Date,TemperatureHighF,TemperatureAvgF,TemperatureLowF,DewpointHighF,DewpointAvgF,DewpointLowF,HumidityHigh,HumidityAvg,HumidityLow,PressureMaxIn,PressureMinIn,WindSpeedMaxMPH,WindSpeedAvgMPH,GustSpeedMaxMPH,PrecipitationSumIn
2013-1-1,60.4,52.5,44.1,58.0,51.0,41.0,96,94,87,30.15,29.91,8,2,0,2.14
2013-1-2,43.9,42.6,40.6,41.0,38.1,37.0,89,84,77,30.26,30.14,6,1,0,0.00
2013-1-3,53.1,43.4,36.9,37.0,34.8,32.0,91,73,46,30.40,30.26,5,1,0,0.00
2013-1-4,50.5,44.0,37.5,36.0,33.6,32.0,81,67,52,30.49,30.32,5,1,0,0.00
2013-1-5,45.4,43.3,41.9,43.0,40.2,34.0,95,89,66,30.36,30.23,6,0,0,0.53
2013-1-6,56.9,46.0,35.3,44.0,40.2,32.0,95,82,58,30.31,30.21,7,1,0,0.00
2013-1-7,58.4,43.3,28.2,41.0,35.0,26.0,96,75,46,30.32,30.13,4,0,0,0.00
2013-1-8,61.6,52.6,44.2,61.0,48.7,39.0,96,87,73,30.14,29.99,5,1,0,0.01
2013-1-9,64.5,61.0,60.5,64.0,60.1,59.0,97,93,96,30.12,30.00,3,1,0,0.14
2013-1-10,64.8,49.1,60.7,64.0,46.9,59.0,98,73,92,30.09,29.93,8,1,0,1.45
2013-1-11,72.3,62.0,47.7,65.0,55.8,46.0,97,82,57,30.03,29.90,5,1,0,0.03
2013-1-12,75.8,71.8,66.6,70.0,68.1,65.0,96,88,74,29.93,29.72,16,5,0,0.07
2013-1-13,72.1,54.4,42.9,68.0,51.8,41.0,95,91,73,30.14,29.69,13,4,0,0.97
2013-1-14,42.8,38.3,35.5,40.0,35.2,33.0,92,89,83,30.20,30.08,8,3,0,0.05
2013-1-15,35.8,34.8,33.7,34.0,33.2,32.0,95,93,91,30.11,29.99,7,2,0,0.05
2013-1-16,38.5,35.7,32.9,36.0,34.0,32.0,95,93,88,30.19,30.06,8,2,0,0.14
2013-1-17,57.5,41.7,29.8,36.0,32.3,27.0,92,72,43,30.45,30.17,7,1,0,0.00
2013-1-18,58.1,41.6,29.0,38.0,30.2,25.0,94,69,29,30.52,30.35,5,0,0,0.00
2013-1-19,60.4,43.2,28.7,44.0,35.3,27.0,95,76,50,30.35,30.19,5,0,0,0.00
2013-1-20,66.0,47.8,31.3,52.0,39.0,29.0,96,75,38,30.25,30.10,5,0,0,0.00
2013-1-21,67.8,49.0,36.5,52.0,41.2,35.0,96,76,54,30.22,30.12,7,1,0,0.00
2013-1-22,63.1,48.7,37.3,44.0,37.4,31.0,83,66,48,30.33,30.22,5,0,0,0.00
2013-1-23,73.3,55.3,38.5,54.0,46.6,36.0,95,76,43,30.33,30.20,6,1,0,0.00
2013-1-24,73.0,61.5,51.7,62.0,56.9,50.0,96,85,67,30.27,30.12,7,1,0,0.00
2013-1-25,77.4,65.2,55.6,62.0,57.9,54.0,96,79,52,30.16,30.03,9,1,0,0.00
2013-1-26,72.0,61.5,53.3,62.0,56.1,50.0,92,83,66,30.20,30.10,4,1,0,0.00
2013-1-27,75.8,62.4,47.9,62.0,55.7,46.0,96,80,57,30.18,30.07,10,2,0,0.00
2013-1-28,73.9,68.1,63.5,65.0,62.8,60.0,90,83,73,30.16,30.02,13,3,0,0.00
2013-1-29,77.2,71.1,66.8,70.0,66.6,64.0,91,85,70,30.02,29.61,20,6,0,0.01
2013-1-30,72.7,52.4,36.6,68.0,40.9,29.0,95,67,45,30.16,29.61,18,3,0,0.77
2013-1-31,63.4,47.3,31.2,36.0,30.7,26.0,92,58,26,30.28,30.16,6,1,0,0.00